Overview Statistics Trail Chart Weather Telemetry Raw packets
 

This is the latest recevied weather packets stored in our database for station/object IW1RCO-13. If no packets are shown the sender has not sent any weather packets the latest 10 day(s).

<< 67 68 69 70 71 72 73 >>
Time Temp. Humidity Pressure Rain* Wind** Luminosity Snow
1788085466 25.56° C 62% 1014.4 hPa - - - -
1788085169 26.11° C 60% 1014.2 hPa - - - -
1788084865 25.56° C 60% 1014.5 hPa - - - -
1788084569 25.56° C 62% 1014 hPa - - - -
1788084272 25.56° C 57% 1015.4 hPa - - - -
1788083968 25.56° C 59% 1015.3 hPa - - - -
1788083672 25.56° C 56% 1014.8 hPa - - - -
1788083368 25° C 57% 1015.1 hPa - - - -
1788083071 25° C 58% 1015.3 hPa - - - -
1788082768 25° C 60% 1016 hPa - - - -
1788082471 25° C 57% 1016.3 hPa - - - -
1788082168 24.44° C 58% 1016.6 hPa - - - -
1788081871 24.44° C 58% 1016.4 hPa - - - -
1788081567 23.89° C 58% 1016.6 hPa - - - -
1788081271 23.89° C 57% 1015.8 hPa - - - -
1788080967 23.89° C 56% 1015.9 hPa - - - -
1788080670 23.89° C 57% 1016.5 hPa - - - -
1788080070 23.33° C 57% 1016.4 hPa - - - -
1788079767 23.33° C 56% 1016.1 hPa - - - -
1788079470 23.33° C 55% 1015.9 hPa - - - -
1788079166 23.33° C 59% 1017 hPa - - - -
1788078869 22.78° C 58% 1016.3 hPa - - - -
1788078566 23.33° C 58% 1016.1 hPa - - - -
1788078269 22.78° C 56% 1016.3 hPa - - - -
1788077966 23.33° C 58% 1016 hPa - - - -

* Rain since midnight (hover to see other rain measurements)
** Current wind speed in m/s (hover to see current wind gust speed)